Franklin, PA

3:17 AM EST on December 13, 2019 (GMT -0500)
Venango Regional

Weather History for KFKL - October, 2019

Change the Weather History Date:

Tuesday, October 29, 2019

  Actual Average Record
Temperature  
Mean Temperature 58 °F -  
Max Temperature 69 °F 57 °F 79 °F (1927)
Min Temperature 51 °F 35 °F 15 °F (1965)
Degree Days  
Heating Degree Days 6    
Growing Degree Days 8 (Base 50)    
Moisture  
Dew Point 48 °F    
Average Humidity 73    
Maximum Humidity 86    
Minimum Humidity 59    
Precipitation  
Precipitation 0.00 in - - ()
Sea Level Pressure  
Sea Level Pressure 30.15 in    
Wind  
Wind Speed 8 mph (SSW)    
Max Wind Speed 15 mph    
Max Gust Speed 16 mph    
Visibility 10 miles    
Events      
Averages and records for this station are not official NWS values.
T = Trace of Precipitation, MM = Missing Value Source: NWS Daily Summary

Daily Weather History Graph

Daily Weather History Graph

Search for Another Location

Airport or City:

Astronomy

Oct. 29, 2019 Rise Set
Actual Time 7:47 AM EDT 6:18 PM EDT
Civil Twilight 7:18 AM EDT 6:47 PM EDT
Nautical Twilight 6:46 AM EDT 7:19 PM EDT
Astronomical Twilight 6:13 AM EDT 7:51 PM EDT
Moon 9:19 AM EDT (10/29) 7:40 PM EDT (10/29)
Length of Visible Light 11h 28m
Length of Day
10h 31m
Waxing Crescent, 3% of the Moon is Illuminated
Oct 29
Waxing Crescent
Nov 4
First Quarter
Nov 12
Full
Nov 19
Last Quarter
Nov 26
New

Hourly Weather History & Observations

Time (EDT) Temp. Dew Point Humidity Pressure Visibility Wind Dir Wind Speed Gust Speed Precip Events Conditions
12:56 AM 51.1 °F 42.1 °F 71% 30.11 in 10.0 mi SSE 5.8 mph - N/A   Clear
1:56 AM 51.1 °F 43.0 °F 74% 30.11 in 10.0 mi SSE 8.1 mph - N/A   Clear
2:56 AM 51.1 °F 43.0 °F 74% 30.09 in 10.0 mi SE 11.5 mph - N/A   Clear
3:56 AM 51.1 °F 44.1 °F 77% 30.08 in 10.0 mi SSE 10.4 mph - N/A   Clear
4:56 AM 51.1 °F 44.1 °F 77% 30.09 in 10.0 mi SSE 9.2 mph - N/A   Partly Cloudy
5:56 AM 51.1 °F 44.1 °F 77% 30.11 in 10.0 mi SSE 10.4 mph - N/A   Clear
6:56 AM 51.1 °F 45.0 °F 80% 30.13 in 10.0 mi SSE 9.2 mph - N/A   Mostly Cloudy
7:56 AM 51.1 °F 45.0 °F 80% 30.14 in 10.0 mi SSE 9.2 mph - N/A   Overcast
8:56 AM 53.1 °F 46.0 °F 77% 30.17 in 10.0 mi SSE 8.1 mph - N/A   Overcast
9:56 AM 55.0 °F 48.0 °F 77% 30.17 in 10.0 mi South 8.1 mph - N/A   Overcast
10:56 AM 57.9 °F 48.9 °F 72% 30.16 in 10.0 mi South 13.8 mph - N/A   Partly Cloudy
11:56 AM 64.0 °F 52.0 °F 65% 30.15 in 10.0 mi SSE 9.2 mph - N/A   Partly Cloudy
12:56 PM 66.9 °F 53.1 °F 61% 30.14 in 10.0 mi SW 8.1 mph - N/A   Clear
1:56 PM 66.9 °F 53.1 °F 61% 30.13 in 10.0 mi SSW 15.0 mph - N/A   Mostly Cloudy
2:56 PM 66.9 °F 52.0 °F 59% 30.14 in 10.0 mi SW 10.4 mph - N/A   Overcast
3:56 PM 66.0 °F 53.1 °F 63% 30.14 in 10.0 mi West 10.4 mph 16.1 mph N/A   Mostly Cloudy
4:56 PM 64.9 °F 52.0 °F 63% 30.14 in 10.0 mi SW 9.2 mph - N/A   Scattered Clouds
5:56 PM 64.0 °F 52.0 °F 65% 30.16 in 10.0 mi WSW 9.2 mph - N/A   Overcast
6:56 PM 57.9 °F 50.0 °F 75% 30.18 in 10.0 mi West 6.9 mph - N/A   Clear
7:56 PM 57.0 °F 50.0 °F 77% 30.21 in 10.0 mi West 6.9 mph - N/A   Clear
8:56 PM 55.9 °F 50.0 °F 80% 30.23 in 10.0 mi West 5.8 mph - N/A   Overcast
9:56 PM 55.0 °F 48.9 °F 80% 30.24 in 10.0 mi West 3.5 mph - N/A   Clear
10:56 PM 53.1 °F 48.9 °F 86% 30.25 in 10.0 mi WNW 3.5 mph - N/A   Clear
11:56 PM 52.0 °F 48.0 °F 86% 30.24 in 10.0 mi NW 3.5 mph - N/A   Clear